KK4KTV-13 Weather Reports


time (UTC)temp
C
wind
direction
speed
KPH
gust
KPH
rain 1hr
cm
rain 24hr
cm
rain mn
cm
humidity
%
barometer
mb
20260505130158 -17 268 1.6 4.8 0.00 0.00 0.00 1011.1
20260505124648 -17 247 1.6 3.2 0.00 0.00 0.00 1011.3
20260505124145 -17 261 0.0 3.2 0.00 0.00 0.00 1011.4
20260505123642 -17 278 1.6 3.2 0.00 0.00 0.00 1011.5
20260505123139 -17 282 1.6 3.2 0.00 0.00 0.00 1011.4
20260505122635 -17 287 0.0 1.6 0.00 0.00 0.00 1011.2
20260505122132 -17 288 1.6 1.6 0.00 0.00 0.00 1011.2
20260505121628 -17 283 0.0 1.6 0.00 0.00 0.00 1011.4
20260505121125 -17 290 1.6 3.2 0.00 0.00 0.00 1011.1
20260505120621 -17 268 0.0 0.0 0.00 0.00 0.00 1011.1
20260505120117 -17 268 0.0 1.6 0.00 0.00 0.00 1011.1
20260505115612 -17 296 1.6 1.6 0.00 0.00 0.00 1011.0
20260505115109 -17 296 0.0 0.0 0.00 0.00 0.00 1011.1
20260505114606 -17 297 0.0 0.0 0.00 0.00 0.00 1011.0
20260505114102 -17 297 0.0 1.6 0.00 0.00 0.00 1010.8
20260505113559 -17 302 0.0 1.6 0.00 0.00 0.00 1010.8
20260505113055 -17 272 0.0 0.0 0.00 0.00 0.00 1010.9
20260505112552 -17 272 0.0 0.0 0.00 0.00 0.00 1010.7
20260505112051 -17 265 0.0 1.6 0.00 0.00 0.00 1010.8
20260505111550 -17 231 0.0 0.0 0.00 0.00 0.00 1010.7
20260505111046 -17 255 0.0 0.0 0.00 0.00 0.00 1010.8
20260505110543 -17 254 0.0 0.0 0.00 0.00 0.00 1010.8
20260505102015 -17 257 1.6 3.2 0.00 0.00 0.00 1010.2
20260505101513 -17 291 3.2 3.2 0.00 0.00 0.00 1010.0
20260505101010 -17 276 0.0 0.0 0.00 0.00 0.00 1010.0
20260505100507 -17 272 3.2 3.2 0.00 0.00 0.00 1010.1
20260505100003 -17 286 1.6 3.2 0.00 0.00 0.00 1010.1
20260505095459 -17 283 1.6 3.2 0.00 0.00 0.00 1009.8
20260505094955 -17 269 0.0 0.0 0.00 0.00 0.00 1009.9
20260505094453 -17 269 0.0 0.0 0.00 0.00 0.00 1009.8
20260505093949 -17 267 1.6 3.2 0.00 0.00 0.00 1009.9
20260505093446 -17 262 0.0 0.0 0.00 0.00 0.00 1009.9
20260505092943 -17 257 0.0 3.2 0.00 0.00 0.00 1010.0
20260505092440 -17 264 1.6 3.2 0.00 0.00 0.00 1009.9
20260505091938 -17 267 1.6 4.8 0.00 0.00 0.00 1009.9
20260505091435 -17 267 3.2 6.4 0.00 0.00 0.00 1009.8
20260505090933 -17 276 3.2 4.8 0.00 0.00 0.00 1009.9
20260505090431 -17 264 6.4 9.7 0.00 0.00 0.00 1009.7
20260505085928 -17 225 9.7 11.3 0.00 0.00 0.00 1009.8
20260505085426 -17 232 8.0 12.9 0.00 0.00 0.00 1009.7
20260505084924 -17 261 6.4 9.7 0.00 0.00 0.00 1009.8
20260505084422 -17 246 3.2 9.7 0.00 0.00 0.00 1009.8
20260505083920 -17 208 9.7 14.5 0.00 0.00 0.00 1009.6
20260505083417 -17 256 4.8 6.4 0.00 0.00 0.00 1009.6
20260505082913 -17 216 6.4 9.7 0.00 0.00 0.00 1009.5
20260505082409 -17 216 6.4 12.9 0.00 0.00 0.00 1009.6
20260505081906 -17 245 6.4 11.3 0.00 0.00 0.00 1009.6
20260505081357 -17 268 4.8 6.4 0.00 0.00 0.00 1009.8
20260505080854 -17 266 3.2 4.8 0.00 0.00 0.00 1009.7
20260505080350 -17 224 3.2 4.8 0.00 0.00 0.00 1009.8
20260505075846 -17 243 6.4 9.7 0.00 0.00 0.00 1009.6
20260505075343 -17 260 1.6 4.8 0.00 0.00 0.00 1009.7
20260505074840 -17 251 1.6 6.4 0.00 0.00 0.00 1009.5
20260505074337 -17 199 4.8 9.7 0.00 0.00 0.00 1009.4
20260505073834 -17 220 6.4 9.7 0.00 0.00 0.00 1009.4
20260505073332 -17 284 3.2 3.2 0.00 0.00 0.00 1009.4
20260505072829 -17 262 1.6 3.2 0.00 0.00 0.00 1009.4
20260505072325 -17 277 1.6 4.8 0.00 0.00 0.00 1009.4
20260505071821 -17 261 3.2 6.4 0.00 0.00 0.00 1009.3
20260505071317 -17 263 3.2 4.8 0.00 0.00 0.00 1009.4
20260505070815 -17 260 3.2 4.8 0.00 0.00 0.00 1009.6
20260505070311 -17 243 1.6 6.4 0.00 0.00 0.00 1009.2
20260505065806 -17 237 4.8 9.7 0.00 0.00 0.00 1009.4
20260505065304 -17 216 4.8 6.4 0.00 0.00 0.00 1009.3
20260505064801 -17 262 4.8 6.4 0.00 0.00 0.00 1009.6
20260505064258 -17 222 3.2 6.4 0.00 0.00 0.00 1009.5
20260505063755 -17 249 4.8 6.4 0.00 0.00 0.00 1009.5
20260505063252 -17 245 3.2 6.4 0.00 0.00 0.00 1009.5
20260505062749 -17 224 3.2 9.7 0.00 0.00 0.00 1009.5
20260505062246 -17 223 6.4 6.4 0.00 0.00 0.00 1009.8
20260505061743 -17 228 8.0 9.7 0.00 0.00 0.00 1009.7
20260505061241 -17 245 4.8 6.4 0.00 0.00 0.00 1009.7
20260505060738 -17 221 6.4 9.7 0.00 0.00 0.00 1009.6
20260505060235 -17 210 11.3 14.5 0.00 0.00 0.00 1009.6
20260505055730 -17 244 4.8 9.7 0.00 0.00 0.00 1009.7
20260505055227 -17 220 3.2 9.7 0.00 0.00 0.00 1009.8
20260505054724 -17 233 4.8 9.7 0.00 0.00 0.00 1009.7
20260505054222 -17 239 4.8 6.4 0.00 0.00 0.00 1010.0
20260505053720 -17 196 6.4 6.4 0.00 0.00 0.00 1009.7
20260505053216 -17 252 3.2 9.7 0.00 0.00 0.00 1009.8
20260505052713 -17 234 1.6 3.2 0.00 0.00 0.00 1009.7
20260505052210 -17 212 4.8 11.3 0.00 0.00 0.00 1009.9
20260505051707 -17 246 4.8 12.9 0.00 0.00 0.00 1009.7
20260505051205 -17 228 4.8 6.4 0.00 0.00 0.00 1009.7
20260505050658 -17 242 3.2 6.4 0.00 0.00 0.00 1009.8
20260505050155 -17 254 3.2 9.7 0.00 0.00 0.00 1009.4
20260505041625 -17 217 8.0 12.9 0.00 0.00 0.00 1009.3
20260505041123 -17 193 8.0 17.7 0.00 0.00 0.00 1009.4
20260505040619 -17 203 8.0 9.7 0.00 0.00 0.00 1009.2
20260505040117 -17 237 6.4 14.5 0.00 0.03 0.03 1009.2
20260505035613 -17 225 9.7 16.1 0.00 0.03 0.03 1009.2
20260505035109 -17 249 4.8 12.9 0.00 0.03 0.03 1009.0
20260505034606 -17 243 6.4 12.9 0.00 0.03 0.03 1009.1
20260505034103 -17 210 8.0 16.1 0.00 0.03 0.03 1008.8
20260505033600 -17 212 9.7 14.5 0.00 0.03 0.03 1008.9
20260505033058 -17 221 6.4 17.7 0.00 0.03 0.03 1008.7
20260505032556 -17 261 9.7 12.9 0.00 0.03 0.03 1008.9
20260505032051 -17 218 9.7 17.7 0.00 0.03 0.03 1008.6
20260505031549 -17 234 11.3 16.1 0.00 0.03 0.03 1008.7
20260505031045 -17 234 9.7 12.9 0.00 0.03 0.03 1008.5
20260505030542 -17 180 14.5 20.9 0.00 0.03 0.03 1008.4
20260505030038 -17 204 14.5 16.1 0.00 0.03 0.03 1008.5
20260505025534 -17 210 6.4 14.5 0.00 0.03 0.03 1008.6
20260505025033 -17 214 4.8 17.7 0.00 0.03 0.03 1008.6
20260505024530 -17 236 9.7 12.9 0.00 0.03 0.03 1008.3
20260505024027 -17 244 11.3 12.9 0.00 0.03 0.03 1008.2
20260505023524 -17 204 4.8 9.7 0.00 0.03 0.03 1008.2
20260505023022 -17 177 8.0 12.9 0.00 0.03 0.03 1008.3
20260505022519 -17 227 9.7 12.9 0.00 0.03 0.03 1008.3
20260505022016 -17 198 6.4 9.7 0.00 0.03 0.03 1008.3
20260505021512 -17 214 8.0 9.7 0.00 0.03 0.03 1008.3
20260505021009 -17 188 12.9 17.7 0.00 0.03 0.03 1008.1
20260505020503 -17 234 14.5 17.7 0.00 0.03 0.03 1008.0
20260505020000 -17 206 11.3 14.5 0.00 0.03 0.03 1008.0
20260505015458 -17 197 9.7 16.1 0.00 0.03 0.03 1007.8
20260505014954 -17 182 11.3 24.1 0.00 0.03 0.03 1007.8
20260505014451 -17 234 11.3 16.1 0.00 0.03 0.03 1007.8
20260505013949 -17 210 11.3 14.5 0.00 0.03 0.03 1008.0
20260505013446 -17 208 11.3 20.9 0.00 0.03 0.03 1007.8
20260505012943 -17 194 11.3 14.5 0.00 0.03 0.03 1008.0
20260505012441 -17 178 6.4 14.5 0.00 0.03 0.03 1007.9
20260505011938 -17 199 9.7 12.9 0.00 0.03 0.03 1008.0
20260505011433 -17 203 8.0 16.1 0.00 0.03 0.03 1007.9
20260505010930 -17 216 6.4 11.3 0.00 0.03 0.03 1008.1
20260505010426 -17 227 8.0 11.3 0.00 0.03 0.03 1008.0
20260505005922 -17 205 8.0 11.3 0.00 0.03 0.03 1008.0
20260505005420 -17 212 8.0 17.7 0.00 0.03 0.03 1008.0
20260505004917 -17 226 11.3 14.5 0.00 0.03 0.03 1008.3
20260505004413 -17 219 8.0 11.3 0.00 0.03 0.03 1008.0
20260505003910 -17 210 6.4 11.3 0.00 0.03 0.03 1008.2
20260505003407 -17 218 6.4 11.3 0.00 0.03 0.03 1008.2
20260505002904 -17 224 9.7 14.5 0.00 0.03 0.03 1008.3
20260505002400 -17 213 8.0 12.9 0.00 0.03 0.03 1008.2
20260505001859 -17 249 9.7 12.9 0.00 0.03 0.03 1008.2
20260505001356 -17 229 6.4 11.3 0.00 0.03 0.03 1008.1
20260505000853 -17 235 6.4 11.3 0.00 0.03 0.03 1008.2
20260505000351 -17 208 4.8 12.9 0.00 0.03 0.03 1008.2
20260504235847 -17 214 9.7 11.3 0.00 0.03 0.03 1008.2
20260504235344 -17 195 9.7 12.9 0.00 0.03 0.03 1008.2
20260504234840 -17 231 8.0 16.1 0.00 0.03 0.03 1008.2
20260504234338 -17 226 9.7 14.5 0.00 0.03 0.03 1008.3
20260504233835 -17 218 9.7 16.1 0.00 0.03 0.03 1008.4
20260504233330 -17 196 9.7 14.5 0.00 0.03 0.03 1008.3
20260504232827 -17 216 6.4 11.3 0.00 0.03 0.03 1008.4
20260504232324 -17 262 6.4 12.9 0.00 0.03 0.03 1008.6
20260504231821 -17 234 8.0 16.1 0.00 0.03 0.03 1008.5
20260504231318 -17 219 4.8 9.7 0.00 0.03 0.03 1008.6
20260504230814 -17 254 4.8 6.4 0.00 0.03 0.03 1008.6
20260504230312 -17 219 11.3 17.7 0.00 0.03 0.03 1008.7
20260504225811 -17 248 6.4 12.9 0.00 0.03 0.03 1008.7
20260504225306 -17 225 11.3 16.1 0.00 0.03 0.03 1008.5
20260504224804 -17 223 8.0 11.3 0.00 0.03 0.03 1008.9
20260504224301 -17 205 4.8 6.4 0.00 0.03 0.03 1008.8
20260504223757 -17 222 8.0 12.9 0.00 0.03 0.03 1008.8
20260504223253 -17 205 14.5 16.1 0.00 0.03 0.03 1008.8
20260504222750 -17 251 6.4 17.7 0.00 0.03 0.03 1008.7
20260504222246 -17 249 8.0 20.9 0.00 0.03 0.03 1008.7
20260504221744 -17 252 9.7 14.5 0.00 0.03 0.03 1008.7
20260504221242 -17 255 9.7 12.9 0.00 0.03 0.03 1008.6
20260504220738 -17 241 6.4 11.3 0.00 0.03 0.03 1008.8
20260504220235 -17 242 6.4 17.7 0.00 0.03 0.03 1008.7
20260504215732 -17 208 14.5 22.5 0.00 0.03 0.03 1008.6
20260504215229 -17 236 12.9 17.7 0.00 0.03 0.03 1008.6
20260504214725 -17 230 16.1 22.5 0.00 0.03 0.03 1008.8
20260504214221 -17 236 16.1 20.9 0.00 0.03 0.03 1008.6
20260504213718 -17 229 9.7 17.7 0.00 0.03 0.03 1008.6
20260504213215 -17 214 12.9 29.0 0.00 0.03 0.03 1008.7
20260504212712 -17 222 11.3 24.1 0.00 0.03 0.03 1008.6
20260504212208 -17 238 14.5 25.7 0.00 0.03 0.03 1008.5
20260504211706 -17 219 16.1 22.5 0.00 0.03 0.03 1008.4
20260504211202 -17 221 9.7 16.1 0.00 0.03 0.03 1008.5
20260504210659 -17 255 12.9 22.5 0.00 0.03 0.03 1008.3
20260504210156 -17 260 9.7 16.1 0.00 0.03 0.03 1008.5
20260504205653 -17 240 6.4 14.5 0.00 0.03 0.03 1008.6
20260504205150 -17 218 16.1 22.5 0.00 0.03 0.03 1008.6
20260504204649 -17 257 12.9 20.9 0.00 0.03 0.03 1008.6
20260504204147 -17 231 14.5 22.5 0.00 0.03 0.03 1008.6
20260504203645 -17 238 12.9 35.4 0.00 0.03 0.03 1008.6
20260504203143 -17 264 8.0 12.9 0.00 0.03 0.03 1008.8
20260504202637 -17 240 9.7 22.5 0.00 0.03 0.03 1008.7
20260504202135 -17 224 12.9 17.7 0.00 0.03 0.03 1009.0
20260504201631 -17 160 6.4 11.3 0.00 0.03 0.03 1008.9
20260504201130 -17 254 11.3 16.1 0.00 0.03 0.03 1009.2
20260504200626 -17 245 12.9 20.9 0.00 0.03 0.03 1009.4
20260504200123 -17 209 16.1 22.5 0.00 0.03 0.03 1009.3
20260504195618 -17 179 11.3 16.1 0.00 0.03 0.03 1009.2
20260504195114 -17 218 12.9 20.9 0.00 0.03 0.03 1009.6
20260504194612 -17 228 11.3 17.7 0.00 0.03 0.03 1009.5
20260504194107 -17 267 12.9 20.9 0.00 0.03 0.03 1009.8
20260504193604 -17 299 20.9 24.1 0.00 0.03 0.03 1009.9
20260504193103 -17 235 8.0 16.1 0.00 0.03 0.03 1009.7
20260504192601 -17 249 12.9 16.1 0.00 0.03 0.03 1009.7
20260504192059 -17 209 9.7 14.5 0.00 0.03 0.03 1009.9
20260504191556 -17 221 6.4 14.5 0.00 0.03 0.03 1010.0
20260504191052 -17 221 11.3 14.5 0.00 0.03 0.03 1010.1
20260504190549 -17 226 11.3 25.7 0.00 0.03 0.03 1010.3
20260504190045 -17 212 16.1 20.9 0.00 0.03 0.03 1010.1
20260504185542 -17 260 11.3 20.9 0.00 0.03 0.03 1010.3
20260504185038 -17 228 12.9 17.7 0.00 0.03 0.03 1010.2
20260504184534 -17 231 11.3 14.5 0.00 0.03 0.03 1010.3
20260504184029 -17 221 12.9 17.7 0.00 0.03 0.03 1010.3
20260504183527 -17 259 12.9 20.9 0.00 0.03 0.03 1010.2
20260504183025 -17 259 11.3 16.1 0.00 0.03 0.03 1010.3
20260504182521 -17 249 11.3 22.5 0.00 0.03 0.03 1010.7
20260504182019 -17 230 9.7 20.9 0.00 0.03 0.03 1010.7
20260504181516 -17 218 12.9 22.5 0.00 0.03 0.03 1010.8
20260504181014 -17 240 19.3 24.1 0.00 0.03 0.03 1010.5
20260504180513 -17 197 11.3 20.9 0.00 0.03 0.03 1010.7
20260504180011 -17 220 9.7 17.7 0.00 0.03 0.03 1010.7
20260504175508 -17 217 16.1 20.9 0.00 0.03 0.03 1010.6
20260504175005 -17 216 14.5 20.9 0.00 0.03 0.03 1010.8
20260504174503 -17 222 12.9 17.7 0.00 0.03 0.03 1010.9
20260504174000 -17 226 12.9 24.1 0.00 0.03 0.03 1010.9
20260504173456 -17 240 12.9 16.1 0.00 0.03 0.03 1010.8
20260504172954 -17 218 9.7 16.1 0.00 0.03 0.03 1010.8
20260504172449 -17 261 9.7 14.5 0.00 0.03 0.03 1011.0
20260504171946 -17 218 9.7 14.5 0.00 0.03 0.03 1011.1
20260504171443 -17 260 17.7 20.9 0.00 0.03 0.03 1011.2
20260504170940 -17 193 14.5 17.7 0.00 0.03 0.03 1011.3
20260504170436 -17 221 8.0 14.5 0.00 0.03 0.03 1011.3
20260504160356 -17 229 12.9 17.7 0.00 0.03 0.03 1011.8
20260504150820 -17 212 17.7 27.4 0.00 0.03 0.03 1012.5
20260504150317 -17 188 12.9 20.9 0.00 0.03 0.03 1012.6
20260504141247 -17 248 9.7 12.9 0.00 0.03 0.03 1013.0
20260504140743 -17 193 9.7 11.3 0.00 0.03 0.03 1013.2
20260504140239 -17 209 12.9 14.5 0.00 0.03 0.03 1013.2